period_start,C,m1,H,J0,J1,J2,J3,J4,J5,JA,JB,JC,JD,JJ,JK,JN,#
2014-02-26 00:00:12,0.41,3.03,0.00,14.37,20.04,23.24,6.19,30.54,1030.29,2065.97,2441.65,2573.73,2791.80,349.96,338.15,3.82,0000 0000 0000 0000 000000
2014-02-26 00:01:12,0.43,3.03,0.00,14.37,20.04,23.22,6.38,30.46,1030.29,2065.97,2441.07,2573.26,2791.25,350.21,338.38,3.82,0000 0000 0000 0000 000000
2014-02-26 00:02:13,0.37,3.04,0.00,14.37,20.04,23.25,6.29,30.50,1030.29,2065.97,2440.41,2572.69,2790.62,349.98,338.17,3.83,0000 0000 0000 0000 000000
2014-02-26 00:03:13,0.44,3.04,0.00,14.37,20.04,23.29,6.54,30.71,1030.29,2065.97,2439.73,2572.24,2790.17,350.57,338.74,3.84,0000 0000 0000 0000 000000
2014-02-26 00:04:13,0.38,3.04,0.00,14.37,20.04,23.25,6.47,30.54,1030.30,2065.96,2439.08,2571.69,2789.56,350.88,338.98,3.84,0000 0000 0000 0000 000000
2014-02-26 00:05:13,0.41,3.04,0.00,14.37,20.04,23.25,6.38,30.58,1030.30,2065.97,2438.43,2571.23,2789.10,350.45,338.64,3.85,0000 0000 0000 0000 000000
2014-02-26 00:06:14,0.37,3.05,0.00,14.37,20.04,23.28,6.38,30.75,1030.29,2065.98,2437.75,2570.65,2788.47,350.21,338.38,3.85,0000 0000 0000 0000 000000
2014-02-26 00:07:14,0.46,3.05,0.00,14.37,20.04,23.28,6.33,30.54,1030.29,2065.97,2437.17,2570.23,2787.98,350.06,338.24,3.86,0000 0000 0000 0000 000000
2014-02-26 00:08:14,0.33,3.05,0.00,14.37,20.04,23.23,6.33,30.46,1030.29,2065.98,2436.50,2569.69,2787.38,349.90,338.08,3.86,0000 0000 0000 0000 000000
2014-02-26 00:09:14,0.44,3.05,0.00,14.37,20.04,23.25,6.30,30.50,1030.29,2065.98,2435.82,2569.21,2786.83,349.89,337.87,3.87,0000 0000 0000 0000 000000
2014-02-26 00:10:14,0.41,3.06,0.00,14.37,20.04,23.29,6.30,30.54,1030.29,2065.98,2435.18,2568.59,2786.28,350.26,338.50,3.88,0000 0000 0000 0000 000000
2014-02-26 00:11:14,0.42,3.06,0.00,14.37,20.04,23.30,6.27,30.71,1030.29,2065.97,2434.48,2568.18,2785.63,349.74,337.54,3.88,0000 0000 0000 0000 000000
2014-02-26 00:12:15,0.41,3.06,0.00,14.37,20.04,23.27,6.24,30.58,1030.29,2065.99,2433.76,2567.60,2785.18,349.77,337.67,3.89,0000 0000 0000 0000 000000
2014-02-26 00:13:15,0.43,3.06,0.00,14.37,20.04,23.23,6.23,30.42,1030.29,2065.99,2433.20,2567.16,2784.56,348.90,337.39,3.89,0000 0000 0000 0000 000000
2014-02-26 00:14:15,0.37,3.06,0.00,14.37,20.04,23.25,6.36,30.33,1030.29,2065.98,2432.51,2566.56,2784.17,350.29,338.26,3.90,0000 0000 0000 0000 000000
2014-02-26 00:15:15,0.40,3.07,0.00,14.37,20.04,23.25,6.23,30.29,1030.29,2065.98,2431.88,2566.12,2783.59,348.49,336.72,3.91,0000 0000 0000 0000 000000
2014-02-26 00:16:16,0.37,3.07,0.00,14.37,20.04,23.21,6.22,30.58,1030.29,2065.97,2431.27,2565.50,2783.03,349.53,337.82,3.91,0000 0000 0000 0000 000000
2014-02-26 00:17:16,0.42,3.07,0.00,14.38,20.04,23.22,6.24,30.38,1030.29,2065.97,2430.58,2565.07,2782.42,348.79,337.26,3.92,0000 0000 0000 0000 000000
2014-02-26 00:18:16,0.41,3.07,0.00,14.37,20.04,23.22,6.27,30.63,1030.29,2065.97,2430.03,2564.47,2781.82,348.92,337.94,3.92,0000 0000 0000 0000 000000
2014-02-26 00:19:16,0.42,3.08,0.00,14.38,20.04,23.21,6.25,30.38,1030.29,2065.99,2429.37,2564.06,2781.26,349.55,337.73,3.93,0000 0000 0000 0000 000000
2014-02-26 00:20:17,0.39,3.08,0.00,14.39,20.04,23.20,6.32,30.63,1030.29,2065.98,2428.63,2563.47,2780.62,350.58,338.72,3.94,0000 0000 0000 0000 000000
2014-02-26 00:21:17,0.48,3.08,0.00,14.39,20.04,23.23,6.36,30.50,1030.29,2065.97,2427.96,2562.96,2780.03,350.33,338.47,3.94,0000 0000 0000 0000 000000
2014-02-26 00:22:17,0.38,3.08,0.00,14.37,20.04,23.23,6.24,30.42,1030.29,2065.97,2427.32,2562.36,2779.40,349.54,337.73,3.95,0000 0000 0000 0000 000000
2014-02-26 00:23:17,0.48,3.09,0.00,14.38,20.04,23.21,6.35,30.50,1030.29,2065.99,2426.61,2561.83,2778.82,351.10,339.23,3.95,0000 0000 0000 0000 000000
2014-02-26 00:24:17,0.44,3.09,0.00,14.40,20.04,23.22,6.26,30.54,1030.29,2065.98,2426.01,2561.32,2778.29,349.63,337.20,3.96,0000 0000 0000 0000 000000
2014-02-26 00:25:18,0.39,3.09,0.00,14.39,20.04,23.23,6.23,30.42,1030.29,2065.98,2425.34,2560.79,2777.68,349.16,337.34,3.96,0000 0000 0000 0000 000000
2014-02-26 00:26:18,0.41,3.09,0.00,14.39,20.04,23.25,6.26,30.58,1030.29,2065.99,2424.61,2560.29,2777.22,349.63,337.80,3.97,0000 0000 0000 0000 000000
2014-02-26 00:27:18,0.42,3.10,0.00,14.39,20.04,23.23,6.32,30.50,1030.29,2065.99,2424.02,2559.75,2776.59,350.07,338.22,3.98,0000 0000 0000 0000 000000
2014-02-26 00:28:19,0.40,3.10,0.00,14.40,20.04,23.20,6.29,30.50,1030.29,2065.96,2423.36,2559.28,2776.11,350.33,338.47,3.98,0000 0000 0000 0000 000000
2014-02-26 00:29:19,0.38,3.10,0.00,14.39,20.04,23.21,6.27,30.67,1030.29,2065.96,2422.63,2558.82,2775.47,350.24,338.38,3.99,0000 0000 0000 0000 000000
2014-02-26 00:30:19,0.43,3.10,0.00,14.40,20.04,23.25,6.41,30.75,1030.29,2065.98,2421.93,2558.31,2774.86,350.75,338.86,3.99,0000 0000 0000 0000 000000
2014-02-26 00:31:20,0.42,3.11,0.00,14.41,20.04,23.28,6.34,30.63,1030.29,2065.99,2421.29,2557.85,2774.31,351.13,338.61,4.00,0000 0000 0000 0000 000000
2014-02-26 00:32:20,0.40,3.11,0.00,14.40,20.04,23.28,6.33,30.67,1030.29,2065.99,2420.57,2557.32,2773.75,350.62,338.32,4.01,0000 0000 0000 0000 000000
2014-02-26 00:33:20,0.42,3.11,0.00,14.42,20.04,23.27,6.29,30.54,1030.29,2065.99,2420.00,2556.86,2773.25,349.42,337.49,4.01,0000 0000 0000 0000 000000
2014-02-26 00:34:21,0.35,3.11,0.00,14.40,20.04,23.21,6.26,30.46,1030.29,2065.97,2419.34,2556.33,2772.63,349.85,337.99,4.02,0000 0000 0000 0000 000000
2014-02-26 00:35:21,0.43,3.12,0.00,14.41,20.04,23.26,6.46,30.67,1030.29,2065.98,2418.64,2555.88,2772.16,350.53,338.62,4.02,0000 0000 0000 0000 000000
2014-02-26 00:36:21,0.37,3.12,0.00,14.41,20.04,23.31,6.28,30.50,1030.29,2065.98,2417.98,2555.33,2771.51,348.96,337.26,4.03,0000 0000 0000 0000 000000
2014-02-26 00:37:22,0.44,3.12,0.00,14.41,20.04,23.27,6.21,30.42,1030.29,2065.97,2417.36,2554.84,2771.06,350.68,338.50,4.03,0000 0000 0000 0000 000000
2014-02-26 00:38:22,0.38,3.12,0.00,14.41,20.04,23.28,6.25,30.54,1030.29,2065.96,2416.70,2554.31,2770.46,349.84,337.97,4.04,0000 0000 0000 0000 000000
2014-02-26 00:39:22,0.41,3.13,0.00,14.42,20.04,23.29,6.15,30.25,1030.29,2065.98,2416.11,2553.85,2769.95,350.94,339.03,4.05,0000 0000 0000 0000 000000
2014-02-26 00:40:22,0.37,3.13,0.00,14.42,20.04,23.29,6.24,30.50,1030.29,2065.97,2415.45,2553.32,2769.36,349.66,337.80,4.05,0000 0000 0000 0000 000000
2014-02-26 00:41:23,0.46,3.13,0.00,14.43,20.04,23.23,6.42,30.67,1030.29,2065.98,2414.79,2552.75,2768.79,351.16,339.23,4.06,0000 0000 0000 0000 000000
2014-02-26 00:42:23,0.40,3.13,0.00,14.44,20.04,23.24,6.36,30.46,1030.29,2065.96,2414.21,2552.28,2768.27,350.78,338.84,4.06,0000 0000 0000 0000 000000
2014-02-26 00:43:23,0.38,3.13,0.00,14.45,20.04,23.25,6.44,30.29,1030.29,2065.95,2413.54,2551.79,2767.70,351.19,339.24,4.07,0000 0000 0000 0000 000000
2014-02-26 00:44:24,0.38,3.14,0.00,14.44,20.04,23.22,6.31,30.63,1030.29,2065.96,2413.04,2551.30,2767.22,349.53,337.64,4.08,0000 0000 0000 0000 000000
2014-02-26 00:45:24,0.36,3.14,0.00,14.44,20.04,23.23,6.33,30.67,1030.29,2065.96,2412.41,2550.92,2766.60,351.33,339.51,4.08,0000 0000 0000 0000 000000
2014-02-26 00:46:24,0.37,3.14,0.00,14.46,20.04,23.27,6.32,30.33,1030.29,2065.95,2411.83,2550.36,2766.16,349.91,337.99,4.09,0000 0000 0000 0000 000000
2014-02-26 00:47:24,0.40,3.14,0.00,14.47,20.04,23.25,6.40,30.25,1030.29,2065.96,2411.27,2549.91,2765.53,350.57,338.62,4.09,0000 0000 0000 0000 000000
2014-02-26 00:48:25,0.40,3.15,0.00,14.44,20.04,23.26,6.30,30.42,1030.29,2065.96,2410.60,2549.37,2765.09,349.37,337.63,4.10,0000 0000 0000 0000 000000
2014-02-26 00:49:25,0.39,3.15,0.00,14.44,20.04,23.28,6.27,30.58,1030.29,2065.96,2410.01,2548.94,2764.51,348.97,336.80,4.11,0000 0000 0000 0000 000000
2014-02-26 00:50:25,0.38,3.15,0.00,14.45,20.04,23.24,6.21,30.46,1030.29,2065.98,2409.39,2548.36,2764.08,349.70,338.06,4.11,0000 0000 0000 0000 000000
2014-02-26 00:51:25,0.43,3.15,0.00,14.46,20.04,23.27,6.40,30.46,1030.29,2065.99,2408.72,2547.92,2763.46,350.65,338.28,4.12,0000 0000 0000 0000 000000
2014-02-26 00:52:26,0.39,3.16,0.00,14.47,20.04,23.23,6.25,30.38,1030.29,2065.97,2408.13,2547.36,2762.99,350.46,338.29,4.12,0000 0000 0000 0000 000000
2014-02-26 00:53:26,0.40,3.16,0.00,14.47,20.04,23.27,6.26,30.46,1030.29,2065.95,2407.47,2546.96,2762.40,350.61,338.87,4.13,0000 0000 0000 0000 000000
2014-02-26 00:54:26,0.39,3.16,0.00,14.48,20.04,23.24,6.27,30.50,1030.29,2065.95,2406.84,2546.39,2761.86,349.43,337.19,4.13,0000 0000 0000 0000 000000
2014-02-26 00:55:26,0.39,3.16,0.00,14.48,20.04,23.24,6.37,30.54,1030.29,2065.97,2406.29,2546.04,2761.33,350.43,338.47,4.14,0000 0000 0000 0000 000000
2014-02-26 00:56:27,0.38,3.16,0.00,14.48,20.04,23.28,6.30,30.58,1030.29,2065.97,2405.65,2545.45,2760.92,349.45,337.77,4.15,0000 0000 0000 0000 000000
2014-02-26 00:57:27,0.38,3.17,0.00,14.49,20.04,23.29,6.26,30.33,1030.29,2065.96,2405.08,2545.06,2760.35,350.54,338.49,4.15,0000 0000 0000 0000 000000
2014-02-26 00:58:27,0.37,3.17,0.00,14.49,20.04,23.25,6.35,30.50,1030.29,2065.97,2404.43,2544.45,2759.91,349.42,337.47,4.16,0000 0000 0000 0000 000000
2014-02-26 00:59:28,0.39,3.17,0.00,14.50,20.04,23.24,6.14,30.63,1030.29,2065.95,2403.81,2544.10,2759.35,349.25,337.30,4.16,0000 0000 0000 0000 000000
2014-02-26 01:00:28,0.35,3.17,0.00,14.51,20.04,23.23,6.13,30.75,1030.29,2065.94,2403.26,2543.49,2758.77,349.37,337.40,4.17,0000 0000 0000 0000 000000
2014-02-26 01:01:28,0.41,3.18,0.00,14.52,20.04,23.22,6.44,30.58,1030.29,2065.96,2402.58,2543.10,2758.28,350.27,338.27,4.18,0000 0000 0000 0000 000000
2014-02-26 01:02:28,0.40,3.18,0.00,14.52,20.04,23.26,6.29,30.33,1030.30,2065.96,2402.02,2542.50,2757.73,350.07,338.07,4.18,0000 0000 0000 0000 000000
2014-02-26 01:03:29,0.40,3.18,0.00,14.53,20.04,23.25,6.27,30.58,1030.29,2065.97,2401.39,2542.15,2757.25,349.53,337.54,4.19,0000 0000 0000 0000 000000
2014-02-26 01:04:29,0.40,3.18,0.00,14.54,20.04,23.24,6.44,30.58,1030.29,2065.96,2400.74,2541.59,2756.64,350.02,338.00,4.19,0000 0000 0000 0000 000000
2014-02-26 01:05:29,0.37,3.19,0.00,14.54,20.04,23.27,6.15,30.50,1030.29,2065.95,2400.17,2541.18,2756.22,349.24,337.24,4.20,0000 0000 0000 0000 000000
2014-02-26 01:06:30,0.39,3.19,0.00,14.54,20.04,23.23,6.17,30.54,1030.29,2065.98,2399.50,2540.58,2755.63,349.05,337.28,4.20,0000 0000 0000 0000 000000
2014-02-26 01:07:30,0.42,3.19,0.00,14.54,20.04,23.22,6.30,30.58,1030.29,2065.96,2398.89,2540.15,2755.11,350.02,338.02,4.21,0000 0000 0000 0000 000000
2014-02-26 01:08:30,0.39,3.19,0.00,14.54,20.04,23.26,6.15,30.54,1030.29,2065.95,2398.30,2539.54,2754.48,349.41,337.40,4.22,0000 0000 0000 0000 000000
2014-02-26 01:09:31,0.42,3.19,0.00,14.54,20.04,23.27,6.14,30.54,1030.29,2065.96,2397.65,2539.15,2754.05,349.32,337.32,4.22,0000 0000 0000 0000 000000
2014-02-26 01:10:31,0.37,3.20,0.00,14.55,20.04,23.21,6.25,30.38,1030.29,2065.93,2397.07,2538.55,2753.44,349.78,338.09,4.23,0000 0000 0000 0000 000000
2014-02-26 01:11:31,0.40,3.20,0.00,14.56,20.04,23.22,6.40,30.33,1030.29,2065.96,2396.42,2538.18,2753.02,350.84,338.53,4.23,0000 0000 0000 0000 000000
2014-02-26 01:12:32,0.40,3.20,0.00,14.56,20.04,23.25,6.42,30.33,1030.29,2065.98,2395.88,2537.64,2752.43,349.80,337.95,4.24,0000 0000 0000 0000 000000
2014-02-26 01:13:32,0.37,3.20,0.00,14.57,20.05,23.20,6.41,30.38,1030.29,2065.95,2395.29,2537.20,2752.00,351.17,338.47,4.25,0000 0000 0000 0000 000000
2014-02-26 01:14:32,0.39,3.21,0.00,14.58,20.05,23.23,6.30,30.25,1030.29,2065.95,2394.61,2536.59,2751.41,349.78,337.72,4.25,0000 0000 0000 0000 000000
2014-02-26 01:15:33,0.39,3.21,0.00,14.58,20.05,23.20,6.29,30.38,1030.29,2065.95,2394.05,2536.21,2751.03,349.54,337.49,4.26,0000 0000 0000 0000 000000
2014-02-26 01:16:33,0.38,3.21,0.00,14.59,20.06,23.22,6.31,30.50,1030.29,2065.94,2393.40,2535.70,2750.43,349.60,337.54,4.26,0000 0000 0000 0000 000000
2014-02-26 01:17:33,0.39,3.21,0.00,14.59,20.06,23.23,6.22,30.50,1030.29,2065.93,2392.71,2535.24,2750.06,349.64,337.57,4.27,0000 0000 0000 0000 000000
2014-02-26 01:18:34,0.34,3.21,0.00,14.59,20.07,23.27,6.23,30.46,1030.29,2065.88,2392.18,2534.69,2749.45,348.72,336.68,4.28,0000 0000 0000 0000 000000
2014-02-26 01:19:34,0.38,3.22,0.00,14.59,20.07,23.26,6.32,30.50,1030.29,2065.93,2391.51,2534.24,2749.05,349.94,337.86,4.28,0000 0000 0000 0000 000000
2014-02-26 01:20:34,0.40,3.22,0.00,14.60,20.07,23.23,6.17,30.67,1030.29,2065.95,2390.88,2533.78,2748.45,349.15,336.74,4.29,0000 0000 0000 0000 000000
2014-02-26 01:21:34,0.40,3.22,0.00,14.60,20.07,23.22,6.31,30.38,1030.29,2065.93,2390.30,2533.28,2747.95,349.70,337.62,4.29,0000 0000 0000 0000 000000
2014-02-26 01:22:35,0.41,3.23,0.00,14.61,20.07,23.20,6.18,30.38,1030.29,2065.93,2389.66,2532.76,2747.37,348.98,336.92,4.30,0000 0000 0000 0000 000000
2014-02-26 01:23:35,0.36,3.23,0.00,14.62,20.07,23.23,6.30,30.46,1030.29,2065.85,2389.08,2532.28,2746.80,350.83,338.82,4.30,0000 0000 0000 0000 000000
2014-02-26 01:24:35,0.35,3.23,0.00,14.62,20.07,23.23,6.28,30.46,1030.29,2065.79,2388.42,2531.76,2746.26,350.38,338.25,4.31,0000 0000 0000 0000 000000
2014-02-26 01:25:35,0.37,3.23,0.00,14.62,20.07,23.21,6.29,30.50,1030.29,2065.81,2387.78,2531.27,2745.68,350.39,338.26,4.32,0000 0000 0000 0000 000000
2014-02-26 01:26:36,0.40,3.24,0.00,14.63,20.07,23.22,6.23,30.38,1030.29,2065.83,2387.25,2530.78,2745.22,349.78,337.94,4.32,0000 0000 0000 0000 000000
2014-02-26 01:27:36,0.43,3.24,0.00,14.64,20.07,23.19,6.33,30.42,1030.29,2065.85,2386.59,2530.28,2744.62,349.97,337.58,4.33,0000 0000 0000 0000 000000
2014-02-26 01:28:36,0.41,3.24,0.00,14.64,20.07,23.20,6.41,30.42,1030.29,2065.89,2386.01,2529.81,2744.18,350.57,338.23,4.33,0000 0000 0000 0000 000000
2014-02-26 01:29:36,0.41,3.24,0.00,14.64,20.07,23.21,6.36,30.54,1030.29,2065.87,2385.39,2529.29,2743.60,350.90,338.73,4.34,0000 0000 0000 0000 000000
2014-02-26 01:30:37,0.39,3.24,0.00,14.64,20.07,23.20,6.34,31.00,1030.29,2065.87,2384.72,2528.82,2743.14,349.91,338.60,4.35,0000 0000 0000 0000 000000
2014-02-26 01:31:37,0.38,3.24,0.00,14.64,20.07,23.20,6.26,30.71,1030.29,2065.79,2384.16,2528.31,2742.49,350.72,338.69,4.35,0000 0000 0000 0000 000000
2014-02-26 01:32:37,0.35,3.25,0.00,14.64,20.08,23.19,6.23,30.42,1030.29,2065.78,2383.47,2527.88,2741.95,349.68,337.55,4.36,0000 0000 0000 0000 000000
2014-02-26 01:33:38,0.34,3.25,0.00,14.64,20.09,23.20,6.32,30.54,1030.29,2065.73,2382.84,2527.34,2741.37,349.24,337.13,4.36,0000 0000 0000 0000 000000
2014-02-26 01:34:38,0.38,3.25,0.00,14.64,20.09,23.21,6.37,30.42,1030.29,2065.70,2382.26,2526.79,2740.88,350.14,337.43,4.37,0000 0000 0000 0000 000000
2014-02-26 01:35:38,0.40,3.26,0.00,14.64,20.09,23.21,6.13,30.58,1030.29,2065.74,2381.62,2526.29,2740.34,349.74,337.60,4.37,0000 0000 0000 0000 000000
2014-02-26 01:36:39,0.42,3.26,0.00,14.66,20.09,23.25,6.32,30.42,1030.29,2065.72,2381.03,2525.81,2739.81,350.52,338.33,4.38,0000 0000 0000 0000 000000
2014-02-26 01:37:39,0.40,3.26,0.00,14.67,20.09,23.25,6.16,30.46,1030.29,2065.68,2380.41,2525.30,2739.30,349.39,337.24,4.39,0000 0000 0000 0000 000000
2014-02-26 01:38:39,0.34,3.26,0.00,14.67,20.09,23.24,6.24,30.46,1030.29,2065.70,2379.83,2524.86,2738.74,349.62,337.46,4.39,0000 0000 0000 0000 000000
2014-02-26 01:39:40,0.38,3.27,0.00,14.68,20.09,23.24,6.24,30.38,1030.29,2065.70,2379.26,2524.35,2738.25,349.88,337.70,4.40,0000 0000 0000 0000 000000
2014-02-26 01:40:40,0.44,3.27,0.00,14.67,20.09,23.19,6.40,30.38,1030.29,2065.71,2378.58,2523.87,2737.62,350.13,337.73,4.40,0000 0000 0000 0000 000000
2014-02-26 01:41:40,0.41,3.27,0.00,14.67,20.09,23.19,6.32,30.58,1030.29,2065.65,2378.00,2523.33,2737.16,349.54,337.15,4.41,0000 0000 0000 0000 000000
2014-02-26 01:42:41,0.35,3.27,0.00,14.68,20.09,23.24,6.39,30.38,1030.29,2065.48,2377.33,2522.80,2736.52,350.45,338.37,4.42,0000 0000 0000 0000 000000
2014-02-26 01:43:41,0.29,3.27,0.00,14.68,20.09,23.25,6.16,30.25,1030.29,2065.30,2376.61,2522.29,2736.10,349.08,336.93,4.42,0000 0000 0000 0000 000000
2014-02-26 01:44:41,0.23,3.27,0.00,14.69,20.09,23.25,6.38,30.38,1030.28,2065.15,2376.05,2521.80,2735.46,350.50,338.29,4.43,0000 0000 0000 0000 000000
2014-02-26 01:45:41,0.27,3.28,0.00,14.69,20.09,23.22,6.36,30.38,1030.29,2065.15,2375.41,2521.29,2735.02,350.17,337.96,4.43,0000 0000 0000 0000 000000
2014-02-26 01:46:42,0.38,3.28,0.00,14.69,20.10,23.20,6.27,30.54,1030.29,2065.18,2374.74,2520.81,2734.43,349.21,337.17,4.44,0000 0000 0000 0000 000000
2014-02-26 01:47:42,0.41,3.28,0.00,14.69,20.11,23.22,6.29,30.38,1030.29,2065.15,2374.20,2520.30,2733.97,350.07,337.73,4.44,0000 0000 0000 0000 000000
2014-02-26 01:48:42,0.39,3.28,0.00,14.71,20.11,23.19,6.25,30.46,1030.29,2065.12,2373.54,2519.88,2733.37,350.84,338.84,4.45,0000 0000 0000 0000 000000
2014-02-26 01:49:43,0.34,3.29,0.00,14.72,20.12,23.20,6.36,30.38,1030.29,2065.12,2372.93,2519.34,2732.89,349.19,336.99,4.46,0000 0000 0000 0000 000000
2014-02-26 01:50:43,0.38,3.29,0.00,14.72,20.12,23.22,6.22,30.33,1030.29,2065.11,2372.34,2518.90,2732.34,349.81,337.58,4.46,0000 0000 0000 0000 000000
2014-02-26 01:51:43,0.39,3.29,0.00,14.72,20.12,23.23,6.35,30.13,1030.29,2065.14,2371.78,2518.34,2731.87,349.28,337.07,4.47,0000 0000 0000 0000 000000
2014-02-26 01:52:44,0.42,3.29,0.00,14.72,20.12,23.23,6.30,30.25,1030.29,2065.11,2371.20,2517.90,2731.33,349.67,337.45,4.47,0000 0000 0000 0000 000000
2014-02-26 01:53:44,0.38,3.30,0.00,14.74,20.12,23.25,6.32,30.46,1030.29,2065.07,2370.53,2517.34,2730.82,350.19,337.93,4.48,0000 0000 0000 0000 000000
2014-02-26 01:54:44,0.34,3.30,0.00,14.73,20.12,23.24,6.23,30.54,1030.29,2065.05,2369.96,2516.99,2730.29,349.29,337.06,4.49,0000 0000 0000 0000 000000
2014-02-26 01:55:44,0.39,3.30,0.00,14.74,20.12,23.22,6.30,30.46,1030.28,2065.07,2369.36,2516.41,2729.72,348.58,336.37,4.49,0000 0000 0000 0000 000000
2014-02-26 01:56:44,0.38,3.30,0.00,14.73,20.12,23.24,6.26,30.46,1030.29,2065.04,2368.72,2516.00,2729.25,350.45,338.18,4.50,0000 0000 0000 0000 000000
2014-02-26 01:57:45,0.39,3.30,0.00,14.74,20.12,23.21,6.28,30.50,1030.26,2065.03,2368.20,2515.40,2728.70,350.00,337.73,4.50,0000 0000 0000 0000 000000
2014-02-26 01:58:45,0.39,3.31,0.00,14.74,20.13,23.21,6.25,30.33,1030.27,2065.02,2367.53,2515.09,2728.23,349.87,337.83,4.51,0000 0000 0000 0000 000000
2014-02-26 01:59:45,0.36,3.31,0.00,14.75,20.14,23.21,6.33,30.46,1030.28,2065.05,2367.05,2514.49,2727.64,348.96,337.04,4.52,0000 0000 0000 0000 000000
2014-02-26 02:00:46,0.43,3.31,0.00,14.76,20.14,23.21,6.37,30.38,1030.27,2065.04,2366.42,2514.06,2727.17,350.00,337.24,4.52,0000 0000 0000 0000 000000
2014-02-26 02:01:46,0.39,3.31,0.00,14.77,20.14,23.29,6.40,30.46,1030.24,2065.03,2365.92,2513.47,2726.54,350.45,337.92,4.53,0000 0000 0000 0000 000000
2014-02-26 02:02:46,0.40,3.32,0.00,14.77,20.14,23.27,6.41,30.42,1030.26,2065.05,2365.35,2513.13,2726.15,350.16,337.88,4.53,0000 0000 0000 0000 000000
2014-02-26 02:03:47,0.36,3.32,0.00,14.77,20.14,23.21,6.38,30.38,1030.23,2065.09,2364.79,2512.55,2725.57,350.68,338.44,4.54,0000 0000 0000 0000 000000
2014-02-26 02:04:47,0.40,3.32,0.00,14.77,20.14,23.15,6.20,30.50,1030.19,2065.07,2364.20,2512.18,2725.08,349.24,337.07,4.54,0000 0000 0000 0000 000000
2014-02-26 02:05:47,0.37,3.32,0.00,14.79,20.14,23.20,6.31,30.42,1030.19,2065.03,2363.53,2511.67,2724.45,350.45,337.86,4.55,0000 0000 0000 0000 000000
2014-02-26 02:06:47,0.37,3.32,0.00,14.79,20.14,23.28,6.34,30.50,1030.19,2065.02,2362.97,2511.21,2724.05,349.70,336.62,4.56,0000 0000 0000 0000 000000
2014-02-26 02:07:47,0.39,3.33,0.00,14.79,20.14,23.25,6.25,30.50,1030.18,2065.02,2362.37,2510.65,2723.46,350.01,338.15,4.56,0000 0000 0000 0000 000000
2014-02-26 02:08:48,0.39,3.33,0.00,14.79,20.15,23.24,6.29,30.50,1030.15,2065.03,2361.85,2510.21,2723.04,349.66,337.31,4.57,0000 0000 0000 0000 000000
2014-02-26 02:09:48,0.38,3.33,0.00,14.80,20.15,23.23,6.32,30.63,1030.22,2065.01,2361.25,2509.67,2722.43,350.17,337.82,4.57,0000 0000 0000 0000 000000
2014-02-26 02:10:48,0.41,3.33,0.00,14.81,20.16,23.22,6.28,30.63,1030.24,2065.03,2360.59,2509.23,2721.85,349.01,336.69,4.58,0000 0000 0000 0000 000000
2014-02-26 02:11:48,0.41,3.34,0.00,14.82,20.17,23.22,6.24,30.54,1030.23,2065.03,2359.98,2508.65,2721.30,349.16,336.83,4.59,0000 0000 0000 0000 000000
2014-02-26 02:12:49,0.43,3.34,0.00,14.83,20.17,23.24,6.19,30.67,1030.26,2065.01,2359.31,2508.21,2720.77,349.74,337.39,4.59,0000 0000 0000 0000 000000
2014-02-26 02:13:49,0.40,3.34,0.00,14.84,20.17,23.20,6.25,30.67,1030.27,2065.02,2358.59,2507.64,2720.25,349.56,337.20,4.60,0000 0000 0000 0000 000000
2014-02-26 02:14:49,0.44,3.34,0.00,14.84,20.17,23.23,6.47,30.50,1030.28,2065.01,2358.02,2507.20,2719.58,350.81,338.40,4.60,0000 0000 0000 0000 000000
2014-02-26 02:15:50,0.40,3.35,0.00,14.84,20.17,23.23,6.32,30.67,1030.25,2065.03,2357.41,2506.63,2719.15,350.16,337.77,4.61,0000 0000 0000 0000 000000
2014-02-26 02:16:50,0.42,3.35,0.00,14.84,20.17,23.25,6.30,30.42,1030.20,2065.04,2356.75,2506.19,2718.53,350.15,337.74,4.61,0000 0000 0000 0000 000000
2014-02-26 02:17:50,0.41,3.35,0.00,14.84,20.17,23.27,6.19,30.38,1030.16,2065.03,2356.09,2505.62,2718.08,349.82,337.47,4.62,0000 0000 0000 0000 000000
2014-02-26 02:18:51,0.44,3.35,0.00,14.84,20.17,23.27,6.16,30.58,1030.23,2065.02,2355.41,2505.22,2717.46,349.28,337.21,4.63,0000 0000 0000 0000 000000
2014-02-26 02:19:51,0.36,3.36,0.00,14.84,20.17,23.24,6.33,30.46,1030.23,2065.02,2354.79,2504.72,2717.03,349.75,337.36,4.63,0000 0000 0000 0000 000000
2014-02-26 02:20:51,0.42,3.36,0.00,14.86,20.17,23.23,6.22,30.54,1030.23,2065.01,2354.25,2504.25,2716.44,350.24,338.11,4.64,0000 0000 0000 0000 000000
2014-02-26 02:21:52,0.37,3.36,0.00,14.87,20.18,23.23,6.38,30.42,1030.23,2065.00,2353.59,2503.74,2715.97,350.04,337.62,4.64,0000 0000 0000 0000 000000
2014-02-26 02:22:52,0.42,3.36,0.00,14.88,20.18,23.25,6.22,30.42,1030.23,2065.01,2353.01,2503.26,2715.38,349.98,337.40,4.65,0000 0000 0000 0000 000000
2014-02-26 02:23:52,0.40,3.36,0.00,14.89,20.19,23.29,6.41,30.46,1030.25,2065.00,2352.40,2502.72,2714.90,350.35,338.20,4.66,0000 0000 0000 0000 000000
2014-02-26 02:24:52,0.41,3.37,0.00,14.88,20.19,23.26,6.27,30.29,1030.27,2065.01,2351.71,2502.24,2714.35,350.03,337.76,4.66,0000 0000 0000 0000 000000
2014-02-26 02:25:53,0.39,3.37,0.00,14.88,20.19,23.27,6.30,30.50,1030.24,2065.00,2351.04,2501.67,2713.77,349.67,337.24,4.67,0000 0000 0000 0000 000000
2014-02-26 02:26:53,0.50,3.37,0.00,14.89,20.19,23.26,6.29,30.67,1030.22,2065.00,2350.39,2501.21,2713.25,350.60,338.12,4.67,0000 0000 0000 0000 000000
2014-02-26 02:27:54,0.35,3.37,0.00,14.89,20.19,23.27,6.36,30.38,1030.22,2065.00,2349.75,2500.62,2712.64,350.89,338.40,4.68,0000 0000 0000 0000 000000
2014-02-26 02:28:54,0.49,3.38,0.00,14.89,20.19,23.23,6.43,30.58,1030.21,2065.00,2349.17,2500.20,2712.19,351.14,338.64,4.69,0000 0000 0000 0000 000000
2014-02-26 02:29:54,0.35,3.38,0.00,14.91,20.19,23.23,6.30,30.58,1030.23,2065.00,2348.49,2499.61,2711.57,350.24,338.02,4.69,0000 0000 0000 0000 000000
2014-02-26 02:30:54,0.45,3.38,0.00,14.91,20.20,23.22,6.37,30.63,1030.25,2065.00,2347.94,2499.21,2711.12,350.31,337.82,4.70,0000 0000 0000 0000 000000
2014-02-26 02:31:55,0.36,3.38,0.00,14.92,20.20,23.25,6.41,30.79,1030.20,2065.00,2347.32,2498.66,2710.48,351.58,339.03,4.70,0000 0000 0000 0000 000000
2014-02-26 02:32:55,0.45,3.39,0.00,14.92,20.21,23.27,6.33,30.50,1030.22,2065.00,2346.64,2498.22,2709.97,349.27,336.80,4.71,0000 0000 0000 0000 000000
2014-02-26 02:33:55,0.40,3.39,0.00,14.92,20.22,23.27,6.16,30.25,1030.19,2065.00,2346.06,2497.67,2709.36,350.43,337.91,4.71,0000 0000 0000 0000 000000
2014-02-26 02:34:56,0.45,3.39,0.00,14.92,20.22,23.27,6.29,30.17,1030.15,2065.00,2345.42,2497.23,2708.89,350.12,337.62,4.72,0000 0000 0000 0000 000000
2014-02-26 02:35:56,0.35,3.39,0.00,14.92,20.22,23.26,6.36,30.42,1030.15,2065.00,2344.75,2496.69,2708.34,350.18,337.46,4.73,0000 0000 0000 0000 000000
2014-02-26 02:36:56,0.46,3.40,0.00,14.92,20.22,23.25,6.23,30.38,1030.08,2065.00,2344.24,2496.24,2707.81,350.23,337.50,4.73,0000 0000 0000 0000 000000